Wind_Speed
32 32 33 34 34 35 36 36 36 36 37 38 38 39 39 40 39 39 39 40 41 42 41 40 39 38 40 41 41 41 40 40 40 40 39 39 39 39 39 39 40 39 40
32 33 33 34 35 35 36 37 37 37 38 39 39 40 40 40 40 40 40 41 41 41 40 40 39 39 39 39 40 40 39 39 40 40 40 39 39 39 40 40 40 41 41
32 32 33 33 33 33 34 36 36 37 38 39 40 41 40 40 40 40 40 40 41 40 40 40 40 40 40 39 39 39 39 39 40 41 41 40 40 40 39 40 41 41 41
31 32 32 33 33 33 34 35 35 37 38 39 40 40 40 40 40 40 40 41 41 41 41 40 40 40 41 40 39 40 40 39 39 40 40 40 40 40 39 39 40 41 41
30 31 32 32 32 33 34 34 35 36 37 37 38 38 39 39 39 41 41 42 42 41 41 40 39 39 40 40 39 39 38 38 38 38 38 38 38 39 39 38 38 39 39
29 30 31 31 31 32 32 32 33 34 34 35 35 35 37 38 38 40 41 41 41 40 40 39 39 39 39 40 39 37 37 37 37 37 37 37 37 37 38 38 38 39 39
28 29 30 30 31 31 30 31 31 31 31 32 32 33 36 37 38 38 39 40 40 39 39 40 40 40 40 39 39 37 37 36 36 36 36 37 37 37 37 38 38 38 38
26 27 27 28 29 29 29 30 30 29 29 29 30 32 34 36 37 37 37 38 39 39 40 40 40 39 39 39 38 37 37 36 35 35 36 36 36 37 37 37 37 36 36
25 26 26 27 27 25 26 27 28 27 27 28 29 30 32 34 35 35 36 37 37 38 40 41 40 40 39 38 37 38 37 36 35 34 35 36 37 36 36 36 37 37 35
24 25 25 26 25 24 24 25 26 26 26 26 27 27 30 31 32 33 35 36 37 37 38 39 39 38 37 37 37 36 36 35 35 34 35 36 37 37 36 37 37 37 35
24 25 26 26 25 24 23 24 24 24 25 25 26 28 29 30 31 31 32 33 33 35 36 37 37 37 37 37 37 36 36 36 35 35 35 36 36 35 36 36 35 35 35
25 26 26 26 24 23 23 23 22 23 24 25 26 26 27 27 28 29 31 31 31 32 34 34 35 36 36 36 36 36 37 37 36 35 34 35 35 34 34 34 34 34 34
25 25 25 25 24 23 23 22 21 22 23 24 24 24 24 25 26 27 29 30 31 32 33 33 34 35 35 35 36 36 36 36 36 34 34 34 34 33 33 33 33 33 34
24 24 24 23 22 22 22 22 23 22 23 23 23 24 24 25 26 26 28 30 31 31 32 32 33 34 35 35 35 35 35 36 35 34 33 33 34 33 33 32 32 32 32
24 24 23 22 22 22 23 24 24 24 24 24 23 24 25 25 26 27 28 29 30 30 31 32 33 33 34 34 35 35 34 34 35 34 33 32 32 32 31 31 31 32 31
23 23 23 22 23 23 23 23 24 24 25 25 24 24 24 25 26 27 28 29 29 30 32 32 32 32 33 33 33 34 34 33 34 33 32 31 30 30 31 31 31 31 32
24 24 23 23 23 24 23 24 24 25 25 25 25 25 25 26 27 28 28 29 30 31 31 31 32 32 33 33 33 33 33 33 33 32 31 31 30 29 30 30 31 31 32
24 25 24 23 24 24 24 24 25 25 25 26 26 26 26 26 27 28 29 30 31 31 31 31 32 32 32 31 32 32 31 31 31 30 30 30 30 30 29 30 30 30 31
24 24 24 24 24 24 24 24 24 25 25 26 26 25 25 26 26 27 28 29 30 31 31 31 31 30 29 29 29 29 29 29 29 29 29 29 29 28 28 29 29 29 29
23 23 23 24 24 24 24 24 24 24 24 24 24 25 26 27 27 28 28 28 28 28 28 27 26 25 25 25 26 26 26 26 26 26 26 27 28 27 27 28 28 28 28
22 22 23 24 24 24 23 23 23 23 23 23 23 24 25 26 27 27 27 27 26 26 25 25 24 24 24 24 24 24 24 25 25 24 24 25 26 27 28 28 28 27 27
22 22 23 23 23 23 22 21 21 22 22 22 22 23 24 25 25 25 25 25 25 24 25 24 24 24 24 23 23 23 23 25 25 25 25 25 26 26 26 27 27 27 27
23 23 23 22 21 21 21 20 20 21 21 21 22 23 24 24 24 24 24 24 24 23 23 23 23 22 22 22 22 22 23 24 25 25 25 25 26 26 26 26 26 26 25
23 23 23 22 21 21 21 20 20 21 21 21 22 22 22 23 23 24 23 23 22 22 21 21 21 21 21 21 22 22 23 23 24 24 25 25 26 26 26 25 25 24 24
22 22 22 22 22 21 21 21 20 19 19 20 20 20 21 21 21 22 22 21 21 20 20 19 20 20 21 22 23 22 22 23 24 24 24 24 25 25 25 24 23 23 23
22 22 23 22 22 22 21 20 19 19 18 19 19 20 19 19 19 19 20 20 19 19 19 19 19 19 19 20 20 21 20 21 21 21 21 22 22 22 22 21 22 22 22
Wind_Direction
273 272 270 269 268 267 267 268 268 264 259 256 256 255 256 256 257 256 258 259 260 262 264 266 267 268 268 267 267 267 266 266 265 264 264 265 266 266 268 269 269 269 270
274 273 272 271 270 270 269 269 268 264 261 258 258 255 256 257 259 258 259 260 260 263 264 265 266 266 267 268 268 268 265 265 265 265 265 265 266 267 267 268 269 270 270
275 275 273 271 270 269 269 268 266 264 262 262 261 257 256 256 258 258 259 261 261 262 262 262 263 265 266 267 269 267 266 267 266 266 265 265 266 267 268 268 269 270 271
278 277 276 274 272 269 269 269 267 267 264 263 262 259 258 255 256 257 259 260 260 261 261 262 262 263 265 267 269 267 266 267 266 265 266 267 267 267 268 268 268 268 269
280 280 279 278 275 272 270 269 269 269 267 264 261 259 257 255 255 256 257 259 259 260 260 261 262 264 265 267 268 268 266 265 265 265 266 267 269 268 268 268 269 269 270
280 281 281 280 278 275 272 272 270 269 267 264 261 261 258 256 256 256 256 258 259 260 259 260 262 264 265 267 269 270 266 265 265 265 267 268 268 269 268 269 269 270 270
281 282 283 282 281 278 274 270 269 268 267 264 263 262 260 259 258 258 258 258 259 259 259 259 261 264 265 266 267 269 267 266 265 265 266 268 268 268 269 269 270 271 271
283 285 285 284 283 281 275 269 267 268 269 267 267 265 262 260 259 259 259 259 259 260 260 260 261 263 262 263 266 268 267 266 266 265 266 267 268 267 267 269 271 272 272
284 286 286 285 285 283 277 271 268 269 271 271 272 268 264 263 262 261 261 261 262 262 261 261 261 261 261 263 265 266 265 267 266 266 265 267 268 267 268 269 271 272 272
287 288 287 285 285 284 278 275 270 270 270 272 274 271 267 265 264 262 262 262 263 262 261 262 262 260 262 263 264 265 266 266 266 266 266 267 268 267 269 270 271 271 271
290 289 286 286 284 283 279 276 273 272 271 273 274 272 268 266 264 263 263 264 264 263 264 262 260 260 263 263 264 264 265 266 266 268 268 268 268 268 269 269 270 270 272
288 288 285 283 280 279 277 275 273 271 272 273 273 272 269 267 265 265 265 266 266 265 266 263 261 261 262 264 264 265 267 268 269 269 269 269 267 267 267 268 267 270 272
287 286 284 282 279 277 276 276 275 274 274 274 274 273 270 269 269 269 268 268 268 267 266 264 263 263 264 266 266 267 268 269 270 269 269 267 267 265 265 266 267 268 269
291 287 286 284 282 280 279 279 279 276 275 275 274 272 270 270 273 272 270 269 269 269 268 267 267 267 267 267 266 267 268 268 269 269 270 267 266 264 263 265 266 267 268
292 290 287 284 283 282 280 280 279 277 275 275 274 273 273 272 274 275 274 273 272 271 270 269 268 267 268 268 266 265 267 268 268 268 268 267 266 263 262 265 266 266 267
293 292 289 285 284 284 281 279 278 278 276 274 274 273 273 274 275 277 277 276 274 272 271 270 270 270 269 267 267 266 267 267 268 267 266 266 265 262 263 266 266 266 266
292 291 289 287 286 285 283 280 279 278 276 275 275 274 275 276 276 277 278 277 276 274 272 272 273 273 271 269 267 266 267 267 267 265 265 265 264 264 264 265 267 268 266
293 292 290 289 286 286 285 282 280 278 276 275 275 275 275 277 277 278 277 278 276 274 275 275 277 277 274 270 268 267 267 266 266 265 264 263 264 265 266 267 267 267 266
294 293 292 292 289 287 285 283 281 278 278 276 276 275 276 277 278 279 279 278 276 275 275 275 277 276 273 269 267 266 266 265 264 265 264 263 264 264 266 267 268 268 267
297 294 293 294 292 290 287 283 281 279 280 279 278 278 277 277 278 279 280 280 277 275 275 275 275 274 272 268 266 266 267 265 264 264 263 261 261 260 262 265 267 268 267
297 296 297 296 294 293 291 287 283 282 281 280 280 281 281 280 280 280 279 280 279 275 274 274 271 272 271 268 266 268 268 265 264 265 264 261 260 260 262 264 266 269 270
298 298 299 296 294 294 291 287 285 285 284 284 284 284 285 285 284 284 283 281 281 278 274 274 271 270 270 270 267 269 268 267 266 265 264 262 259 261 261 264 266 269 270
298 298 299 297 294 292 292 291 289 288 286 286 287 286 286 286 286 285 285 284 280 278 277 274 272 270 270 270 269 269 267 267 267 264 263 262 259 260 262 264 265 267 269
296 297 299 299 297 295 294 292 291 291 288 287 287 287 287 287 287 287 287 284 279 278 277 277 273 271 269 269 269 269 268 266 267 265 263 262 260 260 262 263 264 265 267
296 296 298 299 299 297 295 295 293 293 292 289 287 288 290 291 288 286 286 285 282 279 277 277 273 269 267 267 267 267 267 268 269 266 264 264 261 260 261 262 262 264 266
296 297 299 299 298 296 295 293 291 289 290 292 288 288 291 293 291 287 285 285 284 282 277 275 274 272 270 268 265 265 265 268 268 265 264 262 260 259 258 259 261 264 266
Height
5704 5702 5701 5700 5699 5698 5697 5696 5696 5696 5698 5700 5702 5705 5707 5708 5710 5712 5714 5715 5716 5718 5719 5719 5719 5719 5719 5719 5719 5720 5721 5721 5722 5723 5723 5724 5723 5724 5723 5723 5722 5722 5722
5695 5694 5693 5691 5690 5689 5689 5688 5688 5688 5689 5690 5692 5694 5696 5698 5700 5702 5704 5705 5706 5707 5708 5709 5709 5709 5709 5709 5709 5710 5710 5711 5711 5712 5712 5713 5714 5712 5712 5712 5711 5711 5711
5688 5686 5685 5683 5682 5681 5680 5680 5680 5680 5680 5681 5682 5684 5685 5688 5690 5692 5693 5694 5695 5697 5698 5698 5699 5699 5699 5699 5699 5699 5699 5700 5699 5700 5701 5701 5702 5703 5702 5701 5700 5700 5699
5680 5678 5676 5675 5674 5673 5672 5671 5671 5671 5671 5672 5672 5673 5675 5678 5680 5682 5683 5684 5685 5686 5687 5688 5688 5689 5689 5689 5689 5688 5688 5688 5688 5688 5689 5689 5690 5690 5692 5691 5689 5688 5688
5672 5670 5669 5667 5666 5665 5664 5663 5662 5662 5662 5662 5662 5663 5664 5666 5668 5670 5672 5673 5674 5675 5676 5677 5678 5678 5679 5679 5678 5678 5677 5677 5677 5678 5678 5678 5678 5678 5679 5680 5679 5678 5677
5664 5662 5661 5659 5658 5657 5655 5654 5654 5653 5653 5652 5652 5653 5654 5656 5658 5659 5661 5662 5664 5664 5665 5667 5668 5668 5668 5668 5668 5667 5667 5667 5667 5667 5667 5668 5668 5667 5667 5668 5668 5668 5667
5657 5655 5654 5652 5650 5649 5647 5646 5645 5645 5644 5643 5643 5644 5645 5646 5648 5649 5650 5652 5653 5654 5655 5656 5657 5657 5658 5658 5658 5658 5657 5657 5657 5657 5657 5657 5657 5657 5657 5657 5657 5657 5657
5650 5648 5646 5644 5642 5640 5639 5638 5637 5636 5636 5636 5636 5635 5636 5637 5638 5638 5639 5641 5642 5644 5644 5645 5646 5646 5647 5648 5648 5648 5648 5647 5647 5647 5647 5647 5647 5647 5647 5647 5647 5647 5647
5643 5641 5639 5637 5635 5633 5631 5630 5629 5628 5628 5628 5628 5627 5627 5628 5628 5629 5629 5630 5632 5633 5633 5634 5635 5635 5637 5637 5638 5638 5638 5637 5637 5637 5637 5637 5637 5637 5637 5637 5637 5638 5638
5635 5634 5632 5630 5627 5625 5624 5622 5621 5621 5620 5620 5620 5619 5619 5619 5619 5620 5620 5621 5621 5622 5623 5623 5624 5625 5626 5627 5627 5628 5628 5628 5628 5628 5628 5628 5627 5627 5627 5627 5627 5627 5628
5629 5627 5624 5622 5620 5618 5616 5615 5614 5613 5613 5613 5612 5612 5611 5611 5611 5611 5611 5611 5612 5612 5613 5613 5614 5615 5616 5617 5617 5618 5618 5618 5618 5618 5618 5618 5618 5617 5617 5617 5617 5618 5619
5622 5620 5618 5615 5613 5611 5610 5609 5608 5607 5607 5606 5605 5604 5603 5603 5603 5603 5603 5603 5603 5603 5603 5603 5604 5605 5606 5607 5608 5608 5608 5608 5608 5608 5608 5608 5608 5608 5608 5608 5608 5609 5610
5615 5613 5611 5608 5607 5605 5603 5602 5601 5601 5600 5598 5598 5597 5596 5595 5595 5595 5594 5594 5594 5594 5594 5594 5595 5596 5597 5597 5598 5598 5598 5598 5599 5599 5599 5599 5599 5599 5599 5599 5600 5600 5601
5609 5606 5604 5602 5600 5598 5597 5596 5595 5594 5593 5591 5591 5590 5589 5588 5588 5587 5586 5586 5585 5585 5585 5585 5586 5586 5587 5587 5587 5588 5588 5588 5589 5589 5589 5589 5589 5590 5590 5591 5591 5592 5592
5602 5599 5597 5595 5594 5592 5590 5589 5588 5587 5585 5584 5583 5582 5582 5581 5580 5579 5578 5577 5576 5576 5576 5576 5576 5576 5576 5577 5577 5578 5578 5579 5579 5579 5579 5580 5580 5581 5582 5582 5583 5583 5584
5596 5593 5590 5589 5587 5585 5584 5582 5581 5579 5578 5577 5576 5575 5574 5573 5572 5571 5570 5569 5568 5567 5567 5566 5566 5566 5566 5566 5567 5568 5568 5569 5569 5570 5571 5571 5571 5572 5573 5574 5574 5575 5576
5590 5587 5584 5582 5580 5578 5576 5575 5573 5572 5570 5569 5568 5567 5566 5565 5564 5563 5562 5561 5559 5558 5557 5557 5557 5556 5556 5556 5557 5557 5558 5559 5560 5561 5562 5562 5563 5563 5564 5565 5566 5566 5566
5583 5580 5578 5575 5573 5571 5569 5567 5565 5564 5563 5562 5561 5559 5558 5557 5556 5555 5554 5552 5551 5549 5549 5548 5548 5547 5547 5547 5547 5548 5548 5549 5550 5551 5552 5553 5554 5555 5556 5557 5557 5557 5558
5576 5573 5571 5568 5566 5564 5561 5559 5558 5557 5555 5554 5553 5552 5551 5550 5548 5546 5545 5543 5542 5541 5540 5539 5538 5538 5538 5538 5538 5539 5539 5540 5542 5543 5544 5545 5546 5547 5547 5548 5549 5549 5549
5569 5567 5564 5561 5559 5556 5554 5552 5551 5549 5548 5547 5545 5544 5543 5541 5540 5538 5536 5535 5533 5532 5531 5531 5530 5530 5530 5530 5530 5531 5531 5533 5534 5534 5535 5536 5537 5538 5539 5540 5541 5541 5542
5563 5561 5558 5555 5552 5550 5547 5546 5544 5542 5541 5539 5538 5536 5535 5533 5531 5530 5528 5527 5525 5525 5524 5524 5523 5523 5522 5523 5523 5524 5524 5525 5525 5526 5527 5528 5529 5530 5531 5532 5533 5534 5534
5557 5555 5552 5549 5546 5544 5541 5539 5537 5536 5534 5532 5531 5529 5527 5525 5523 5522 5520 5519 5518 5517 5517 5516 5516 5515 5515 5515 5516 5516 5517 5517 5518 5519 5519 5520 5521 5523 5524 5525 5526 5526 5526
5551 5549 5546 5543 5540 5538 5535 5533 5531 5529 5528 5526 5523 5522 5520 5518 5516 5515 5513 5512 5511 5510 5510 5509 5508 5508 5509 5509 5509 5509 5510 5510 5510 5511 5512 5513 5514 5515 5516 5517 5518 5518 5519
5545 5543 5540 5537 5535 5532 5530 5528 5525 5523 5521 5519 5517 5515 5513 5511 5509 5508 5506 5505 5504 5503 5503 5502 5502 5502 5502 5502 5502 5502 5502 5503 5503 5504 5505 5505 5506 5507 5508 5509 5510 5511 5512
5539 5537 5534 5531 5529 5526 5524 5522 5519 5517 5515 5513 5511 5509 5507 5505 5503 5502 5500 5499 5498 5497 5497 5496 5496 5496 5496 5496 5496 5495 5496 5496 5496 5497 5497 5498 5498 5499 5500 5501 5503 5504 5505
5533 5531 5529 5526 5523 5520 5518 5516 5514 5511 5509 5507 5505 5503 5501 5499 5497 5496 5494 5493 5492 5491 5491 5490 5490 5490 5490 5490 5490 5490 5490 5490 5490 5490 5490 5491 5491 5492 5493 5495 5496 5497 5498